iso_date,epoch_date,Year,Hour,Min,DOY,POS_DOY,Lat,Lon,BP,Ts,Ta,has_bp,has_ts,has_ta,BuoyID,Buoy_Type,Buoy_Owner,Logistics,Hemisphere
2019-06-08T06:00:00Z,1559973600,2019,6,0,159.25,159.25,55.39,164.35,1014.5,6.23,-999.0,yes,yes,no,300234066432040,BD2GI,AOML,WWD_COLUMBIA,North
2019-06-08T07:00:28Z,1559977229,2019,7,0,159.292,159.292,55.39,164.328,1014.8,6.21,-999.0,yes,yes,no,300234066432040,BD2GI,AOML,WWD_COLUMBIA,North
2019-06-08T07:59:31Z,1559980771,2019,8,0,159.333,159.333,55.392,164.306,1014.9,6.23,-999.0,yes,yes,no,300234066432040,BD2GI,AOML,WWD_COLUMBIA,North
2019-06-08T09:00:00Z,1559984400,2019,9,0,159.375,159.375,55.394,164.287,1015.3,6.24,-999.0,yes,yes,no,300234066432040,BD2GI,AOML,WWD_COLUMBIA,North
2019-06-08T10:00:28Z,1559988029,2019,10,0,159.417,159.417,55.396,164.269,1015.7,6.25,-999.0,yes,yes,no,300234066432040,BD2GI,AOML,WWD_COLUMBIA,North
2019-06-08T10:59:31Z,1559991571,2019,11,0,159.458,159.458,55.398,164.25,1015.9,6.25,-999.0,yes,yes,no,300234066432040,BD2GI,AOML,WWD_COLUMBIA,North
2019-06-08T12:00:00Z,1559995200,2019,12,0,159.5,159.5,55.399,164.232,1016.2,6.25,-999.0,yes,yes,no,300234066432040,BD2GI,AOML,WWD_COLUMBIA,North
2019-06-08T13:00:28Z,1559998829,2019,13,0,159.542,159.542,55.398,164.213,1016.2,6.25,-999.0,yes,yes,no,300234066432040,BD2GI,AOML,WWD_COLUMBIA,North
2019-06-08T13:59:31Z,1560002371,2019,14,0,159.583,159.583,55.397,164.193,1016.4,6.22,-999.0,yes,yes,no,300234066432040,BD2GI,AOML,WWD_COLUMBIA,North
2019-06-08T15:00:00Z,1560006000,2019,15,0,159.625,159.625,55.397,164.17,1016.5,6.21,-999.0,yes,yes,no,300234066432040,BD2GI,AOML,WWD_COLUMBIA,North
2019-06-08T16:00:28Z,1560009629,2019,16,0,159.667,159.667,55.397,164.143,1016.4,6.2,-999.0,yes,yes,no,300234066432040,BD2GI,AOML,WWD_COLUMBIA,North
2019-06-08T16:59:31Z,1560013171,2019,17,0,159.708,159.708,55.4,164.117,1016.7,6.19,-999.0,yes,yes,no,300234066432040,BD2GI,AOML,WWD_COLUMBIA,North
2019-06-08T18:00:00Z,1560016800,2019,18,0,159.75,159.75,55.404,164.091,1016.9,6.18,-999.0,yes,yes,no,300234066432040,BD2GI,AOML,WWD_COLUMBIA,North
2019-06-08T19:00:28Z,1560020429,2019,19,0,159.792,159.792,55.409,164.067,1017.2,6.19,-999.0,yes,yes,no,300234066432040,BD2GI,AOML,WWD_COLUMBIA,North
2019-06-08T19:59:31Z,1560023971,2019,20,0,159.833,159.833,55.415,164.045,1017.4,6.22,-999.0,yes,yes,no,300234066432040,BD2GI,AOML,WWD_COLUMBIA,North
2019-06-08T21:00:00Z,1560027600,2019,21,0,159.875,159.875,55.42,164.026,1017.6,6.25,-999.0,yes,yes,no,300234066432040,BD2GI,AOML,WWD_COLUMBIA,North
2019-06-08T22:00:28Z,1560031229,2019,22,0,159.917,159.917,55.423,164.006,1017.6,6.3,-999.0,yes,yes,no,300234066432040,BD2GI,AOML,WWD_COLUMBIA,North
2019-06-08T22:59:31Z,1560034771,2019,23,0,159.958,159.958,55.427,163.985,1017.6,6.33,-999.0,yes,yes,no,300234066432040,BD2GI,AOML,WWD_COLUMBIA,North
2019-06-09T00:00:00Z,1560038400,2019,0,0,160.0,160.0,55.43,163.964,1017.7,6.33,-999.0,yes,yes,no,300234066432040,BD2GI,AOML,WWD_COLUMBIA,North
2019-06-09T01:00:28Z,1560042029,2019,1,0,160.042,160.042,55.433,163.942,1017.7,6.34,-999.0,yes,yes,no,300234066432040,BD2GI,AOML,WWD_COLUMBIA,North
2019-06-09T01:59:31Z,1560045571,2019,2,0,160.083,160.083,55.438,163.918,1017.7,6.34,-999.0,yes,yes,no,300234066432040,BD2GI,AOML,WWD_COLUMBIA,North
2019-06-09T03:00:00Z,1560049200,2019,3,0,160.125,160.125,55.443,163.893,1017.7,6.35,-999.0,yes,yes,no,300234066432040,BD2GI,AOML,WWD_COLUMBIA,North
2019-06-09T04:00:28Z,1560052829,2019,4,0,160.167,160.167,55.449,163.869,1017.4,6.36,-999.0,yes,yes,no,300234066432040,BD2GI,AOML,WWD_COLUMBIA,North
2019-06-09T04:59:31Z,1560056371,2019,5,0,160.208,160.208,55.455,163.847,1017.2,6.37,-999.0,yes,yes,no,300234066432040,BD2GI,AOML,WWD_COLUMBIA,North
2019-06-09T06:00:00Z,1560060000,2019,6,0,160.25,160.25,55.461,163.825,1017.2,6.37,-999.0,yes,yes,no,300234066432040,BD2GI,AOML,WWD_COLUMBIA,North
2019-06-09T07:00:28Z,1560063629,2019,7,0,160.292,160.292,55.467,163.804,1017.2,6.36,-999.0,yes,yes,no,300234066432040,BD2GI,AOML,WWD_COLUMBIA,North
2019-06-09T07:59:31Z,1560067171,2019,8,0,160.333,160.333,55.472,163.781,1017.5,6.36,-999.0,yes,yes,no,300234066432040,BD2GI,AOML,WWD_COLUMBIA,North
2019-06-09T09:00:00Z,1560070800,2019,9,0,160.375,160.375,55.478,163.756,1017.8,6.35,-999.0,yes,yes,no,300234066432040,BD2GI,AOML,WWD_COLUMBIA,North
2019-06-09T10:00:28Z,1560074429,2019,10,0,160.417,160.417,55.483,163.731,1018.0,6.34,-999.0,yes,yes,no,300234066432040,BD2GI,AOML,WWD_COLUMBIA,North
2019-06-09T10:59:31Z,1560077971,2019,11,0,160.458,160.458,55.49,163.704,1018.2,6.33,-999.0,yes,yes,no,300234066432040,BD2GI,AOML,WWD_COLUMBIA,North
2019-06-09T12:00:00Z,1560081600,2019,12,0,160.5,160.5,55.497,163.679,1018.3,6.32,-999.0,yes,yes,no,300234066432040,BD2GI,AOML,WWD_COLUMBIA,North
2019-06-09T13:00:28Z,1560085229,2019,13,0,160.542,160.542,55.505,163.654,1018.3,6.31,-999.0,yes,yes,no,300234066432040,BD2GI,AOML,WWD_COLUMBIA,North
2019-06-09T13:59:31Z,1560088771,2019,14,0,160.583,160.583,55.515,163.631,1018.3,6.31,-999.0,yes,yes,no,300234066432040,BD2GI,AOML,WWD_COLUMBIA,North
2019-06-09T15:00:00Z,1560092400,2019,15,0,160.625,160.625,55.524,163.609,1018.4,6.3,-999.0,yes,yes,no,300234066432040,BD2GI,AOML,WWD_COLUMBIA,North
2019-06-09T16:00:28Z,1560096029,2019,16,0,160.667,160.667,55.533,163.59,1018.4,6.29,-999.0,yes,yes,no,300234066432040,BD2GI,AOML,WWD_COLUMBIA,North
2019-06-09T16:59:31Z,1560099571,2019,17,0,160.708,160.708,55.542,163.571,1018.6,6.29,-999.0,yes,yes,no,300234066432040,BD2GI,AOML,WWD_COLUMBIA,North
2019-06-09T18:00:00Z,1560103200,2019,18,0,160.75,160.75,55.549,163.552,1019.1,6.28,-999.0,yes,yes,no,300234066432040,BD2GI,AOML,WWD_COLUMBIA,North
2019-06-09T19:00:28Z,1560106829,2019,19,0,160.792,160.792,55.556,163.529,1019.4,6.27,-999.0,yes,yes,no,300234066432040,BD2GI,AOML,WWD_COLUMBIA,North
2019-06-09T19:59:31Z,1560110371,2019,20,0,160.833,160.833,55.563,163.506,1019.5,6.26,-999.0,yes,yes,no,300234066432040,BD2GI,AOML,WWD_COLUMBIA,North
2019-06-09T21:00:00Z,1560114000,2019,21,0,160.875,160.875,55.57,163.483,1019.8,6.25,-999.0,yes,yes,no,300234066432040,BD2GI,AOML,WWD_COLUMBIA,North
2019-06-09T22:00:28Z,1560117629,2019,22,0,160.917,160.917,55.578,163.46,1019.8,6.25,-999.0,yes,yes,no,300234066432040,BD2GI,AOML,WWD_COLUMBIA,North
2019-06-09T22:59:31Z,1560121171,2019,23,0,160.958,160.958,55.585,163.435,1019.7,6.25,-999.0,yes,yes,no,300234066432040,BD2GI,AOML,WWD_COLUMBIA,North
2019-06-10T00:00:00Z,1560124800,2019,0,0,161.0,161.0,55.594,163.413,1019.6,6.27,-999.0,yes,yes,no,300234066432040,BD2GI,AOML,WWD_COLUMBIA,North
2019-06-10T01:00:28Z,1560128429,2019,1,0,161.042,161.042,55.603,163.389,1019.7,6.3,-999.0,yes,yes,no,300234066432040,BD2GI,AOML,WWD_COLUMBIA,North
2019-06-10T01:59:31Z,1560131971,2019,2,0,161.083,161.083,55.612,163.365,1019.6,6.34,-999.0,yes,yes,no,300234066432040,BD2GI,AOML,WWD_COLUMBIA,North
2019-06-10T03:00:00Z,1560135600,2019,3,0,161.125,161.125,55.621,163.346,1019.3,6.4,-999.0,yes,yes,no,300234066432040,BD2GI,AOML,WWD_COLUMBIA,North
2019-06-10T04:00:28Z,1560139229,2019,4,0,161.167,161.167,55.631,163.327,1019.3,6.43,-999.0,yes,yes,no,300234066432040,BD2GI,AOML,WWD_COLUMBIA,North
2019-06-10T04:59:31Z,1560142771,2019,5,0,161.208,161.208,55.639,163.31,1019.4,6.4,-999.0,yes,yes,no,300234066432040,BD2GI,AOML,WWD_COLUMBIA,North
2019-06-10T06:00:00Z,1560146400,2019,6,0,161.25,161.25,55.647,163.293,1019.2,6.39,-999.0,yes,yes,no,300234066432040,BD2GI,AOML,WWD_COLUMBIA,North
2019-06-10T07:00:28Z,1560150029,2019,7,0,161.292,161.292,55.654,163.278,1019.2,6.37,-999.0,yes,yes,no,300234066432040,BD2GI,AOML,WWD_COLUMBIA,North
2019-06-10T07:59:31Z,1560153571,2019,8,0,161.333,161.333,55.66,163.261,1019.1,6.35,-999.0,yes,yes,no,300234066432040,BD2GI,AOML,WWD_COLUMBIA,North
2019-06-10T09:00:00Z,1560157200,2019,9,0,161.375,161.375,55.664,163.247,1019.2,6.33,-999.0,yes,yes,no,300234066432040,BD2GI,AOML,WWD_COLUMBIA,North
2019-06-10T10:00:28Z,1560160829,2019,10,0,161.417,161.417,55.667,163.229,1019.0,6.31,-999.0,yes,yes,no,300234066432040,BD2GI,AOML,WWD_COLUMBIA,North
2019-06-10T10:59:31Z,1560164371,2019,11,0,161.458,161.458,55.67,163.21,1019.2,6.31,-999.0,yes,yes,no,300234066432040,BD2GI,AOML,WWD_COLUMBIA,North
2019-06-10T12:00:00Z,1560168000,2019,12,0,161.5,161.5,55.674,163.188,1019.0,6.28,-999.0,yes,yes,no,300234066432040,BD2GI,AOML,WWD_COLUMBIA,North
2019-06-10T13:00:28Z,1560171629,2019,13,0,161.542,161.542,55.679,163.166,1018.9,6.27,-999.0,yes,yes,no,300234066432040,BD2GI,AOML,WWD_COLUMBIA,North
2019-06-10T13:59:31Z,1560175171,2019,14,0,161.583,161.583,55.683,163.147,1018.6,6.25,-999.0,yes,yes,no,300234066432040,BD2GI,AOML,WWD_COLUMBIA,North
2019-06-10T15:00:00Z,1560178800,2019,15,0,161.625,161.625,55.687,163.128,1018.4,6.24,-999.0,yes,yes,no,300234066432040,BD2GI,AOML,WWD_COLUMBIA,North
2019-06-10T16:00:28Z,1560182429,2019,16,0,161.667,161.667,55.692,163.11,1018.4,6.24,-999.0,yes,yes,no,300234066432040,BD2GI,AOML,WWD_COLUMBIA,North
2019-06-10T16:59:31Z,1560185971,2019,17,0,161.708,161.708,55.696,163.095,1018.3,6.24,-999.0,yes,yes,no,300234066432040,BD2GI,AOML,WWD_COLUMBIA,North
2019-06-10T18:00:00Z,1560189600,2019,18,0,161.75,161.75,55.699,163.079,1018.5,6.23,-999.0,yes,yes,no,300234066432040,BD2GI,AOML,WWD_COLUMBIA,North
2019-06-10T19:00:28Z,1560193229,2019,19,0,161.792,161.792,55.7,163.064,1018.7,6.22,-999.0,yes,yes,no,300234066432040,BD2GI,AOML,WWD_COLUMBIA,North
2019-06-10T19:59:31Z,1560196771,2019,20,0,161.833,161.833,55.7,163.047,1018.8,6.22,-999.0,yes,yes,no,300234066432040,BD2GI,AOML,WWD_COLUMBIA,North
2019-06-10T21:00:00Z,1560200400,2019,21,0,161.875,161.875,55.699,163.029,1018.8,6.21,-999.0,yes,yes,no,300234066432040,BD2GI,AOML,WWD_COLUMBIA,North
2019-06-10T22:00:28Z,1560204029,2019,22,0,161.917,161.917,55.698,163.01,1018.9,6.21,-999.0,yes,yes,no,300234066432040,BD2GI,AOML,WWD_COLUMBIA,North
2019-06-10T22:59:31Z,1560207571,2019,23,0,161.958,161.958,55.696,162.991,1018.8,6.21,-999.0,yes,yes,no,300234066432040,BD2GI,AOML,WWD_COLUMBIA,North
2019-06-11T00:00:00Z,1560211200,2019,0,0,162.0,162.0,55.694,162.969,1018.7,6.22,-999.0,yes,yes,no,300234066432040,BD2GI,AOML,WWD_COLUMBIA,North
2019-06-11T01:00:28Z,1560214829,2019,1,0,162.042,162.042,55.694,162.949,1018.5,6.23,-999.0,yes,yes,no,300234066432040,BD2GI,AOML,WWD_COLUMBIA,North
2019-06-11T01:59:31Z,1560218371,2019,2,0,162.083,162.083,55.693,162.931,1018.4,6.23,-999.0,yes,yes,no,300234066432040,BD2GI,AOML,WWD_COLUMBIA,North
2019-06-11T03:00:00Z,1560222000,2019,3,0,162.125,162.125,55.693,162.912,1017.9,6.23,-999.0,yes,yes,no,300234066432040,BD2GI,AOML,WWD_COLUMBIA,North
2019-06-11T04:00:28Z,1560225629,2019,4,0,162.167,162.167,55.693,162.894,1017.8,6.22,-999.0,yes,yes,no,300234066432040,BD2GI,AOML,WWD_COLUMBIA,North
2019-06-11T04:59:31Z,1560229171,2019,5,0,162.208,162.208,55.691,162.878,1018.0,6.22,-999.0,yes,yes,no,300234066432040,BD2GI,AOML,WWD_COLUMBIA,North
2019-06-11T06:00:00Z,1560232800,2019,6,0,162.25,162.25,55.688,162.863,1017.9,6.21,-999.0,yes,yes,no,300234066432040,BD2GI,AOML,WWD_COLUMBIA,North
2019-06-11T07:00:28Z,1560236429,2019,7,0,162.292,162.292,55.684,162.846,1017.7,6.2,-999.0,yes,yes,no,300234066432040,BD2GI,AOML,WWD_COLUMBIA,North
2019-06-11T07:59:31Z,1560239971,2019,8,0,162.333,162.333,55.679,162.828,1018.1,6.19,-999.0,yes,yes,no,300234066432040,BD2GI,AOML,WWD_COLUMBIA,North
2019-06-11T09:00:00Z,1560243600,2019,9,0,162.375,162.375,55.674,162.809,1018.2,6.19,-999.0,yes,yes,no,300234066432040,BD2GI,AOML,WWD_COLUMBIA,North
2019-06-11T10:00:28Z,1560247229,2019,10,0,162.417,162.417,55.67,162.789,1018.4,6.18,-999.0,yes,yes,no,300234066432040,BD2GI,AOML,WWD_COLUMBIA,North
2019-06-11T10:59:31Z,1560250771,2019,11,0,162.458,162.458,55.666,162.769,1018.4,6.17,-999.0,yes,yes,no,300234066432040,BD2GI,AOML,WWD_COLUMBIA,North
2019-06-11T12:00:00Z,1560254400,2019,12,0,162.5,162.5,55.662,162.75,1018.4,6.17,-999.0,yes,yes,no,300234066432040,BD2GI,AOML,WWD_COLUMBIA,North
2019-06-11T13:00:28Z,1560258029,2019,13,0,162.542,162.542,55.657,162.732,1018.4,6.17,-999.0,yes,yes,no,300234066432040,BD2GI,AOML,WWD_COLUMBIA,North
2019-06-11T13:59:31Z,1560261571,2019,14,0,162.583,162.583,55.653,162.715,1018.2,6.16,-999.0,yes,yes,no,300234066432040,BD2GI,AOML,WWD_COLUMBIA,North
2019-06-11T15:00:00Z,1560265200,2019,15,0,162.625,162.625,55.649,162.699,1018.1,6.16,-999.0,yes,yes,no,300234066432040,BD2GI,AOML,WWD_COLUMBIA,North
2019-06-11T16:00:28Z,1560268829,2019,16,0,162.667,162.667,55.644,162.683,1018.2,6.15,-999.0,yes,yes,no,300234066432040,BD2GI,AOML,WWD_COLUMBIA,North
2019-06-11T16:59:31Z,1560272371,2019,17,0,162.708,162.708,55.639,162.667,1018.4,6.15,-999.0,yes,yes,no,300234066432040,BD2GI,AOML,WWD_COLUMBIA,North
2019-06-11T18:00:00Z,1560276000,2019,18,0,162.75,162.75,55.633,162.653,1018.9,6.15,-999.0,yes,yes,no,300234066432040,BD2GI,AOML,WWD_COLUMBIA,North
2019-06-11T19:00:28Z,1560279629,2019,19,0,162.792,162.792,55.627,162.638,1019.3,6.15,-999.0,yes,yes,no,300234066432040,BD2GI,AOML,WWD_COLUMBIA,North
2019-06-11T19:59:31Z,1560283171,2019,20,0,162.833,162.833,55.62,162.622,1019.7,6.14,-999.0,yes,yes,no,300234066432040,BD2GI,AOML,WWD_COLUMBIA,North
2019-06-11T21:00:00Z,1560286800,2019,21,0,162.875,162.875,55.613,162.606,1020.0,6.15,-999.0,yes,yes,no,300234066432040,BD2GI,AOML,WWD_COLUMBIA,North
2019-06-11T22:00:28Z,1560290429,2019,22,0,162.917,162.917,55.608,162.591,1019.8,6.16,-999.0,yes,yes,no,300234066432040,BD2GI,AOML,WWD_COLUMBIA,North
2019-06-11T22:59:31Z,1560293971,2019,23,0,162.958,162.958,55.602,162.576,1020.0,6.17,-999.0,yes,yes,no,300234066432040,BD2GI,AOML,WWD_COLUMBIA,North
2019-06-12T00:00:00Z,1560297600,2019,0,0,163.0,163.0,55.596,162.562,1020.1,6.19,-999.0,yes,yes,no,300234066432040,BD2GI,AOML,WWD_COLUMBIA,North
2019-06-12T01:00:28Z,1560301229,2019,1,0,163.042,163.042,55.59,162.55,1019.9,6.25,-999.0,yes,yes,no,300234066432040,BD2GI,AOML,WWD_COLUMBIA,North
2019-06-12T01:59:31Z,1560304771,2019,2,0,163.083,163.083,55.584,162.54,1019.8,6.38,-999.0,yes,yes,no,300234066432040,BD2GI,AOML,WWD_COLUMBIA,North
2019-06-12T03:00:00Z,1560308400,2019,3,0,163.125,163.125,55.577,162.531,1019.8,6.76,-999.0,yes,yes,no,300234066432040,BD2GI,AOML,WWD_COLUMBIA,North
2019-06-12T04:00:28Z,1560312029,2019,4,0,163.167,163.167,55.569,162.522,1019.6,6.95,-999.0,yes,yes,no,300234066432040,BD2GI,AOML,WWD_COLUMBIA,North
2019-06-12T04:59:31Z,1560315571,2019,5,0,163.208,163.208,55.56,162.513,1019.8,7.35,-999.0,yes,yes,no,300234066432040,BD2GI,AOML,WWD_COLUMBIA,North
2019-06-12T06:00:00Z,1560319200,2019,6,0,163.25,163.25,55.552,162.503,1019.7,7.13,-999.0,yes,yes,no,300234066432040,BD2GI,AOML,WWD_COLUMBIA,North
2019-06-12T07:00:28Z,1560322829,2019,7,0,163.292,163.292,55.544,162.491,1019.5,7.2,-999.0,yes,yes,no,300234066432040,BD2GI,AOML,WWD_COLUMBIA,North
2019-06-12T07:59:31Z,1560326371,2019,8,0,163.333,163.333,55.536,162.478,1019.7,6.91,-999.0,yes,yes,no,300234066432040,BD2GI,AOML,WWD_COLUMBIA,North
2019-06-12T09:00:00Z,1560330000,2019,9,0,163.375,163.375,55.529,162.467,1019.6,6.81,-999.0,yes,yes,no,300234066432040,BD2GI,AOML,WWD_COLUMBIA,North
2019-06-12T10:00:28Z,1560333629,2019,10,0,163.417,163.417,55.524,162.456,1019.6,6.68,-999.0,yes,yes,no,300234066432040,BD2GI,AOML,WWD_COLUMBIA,North
2019-06-12T10:59:31Z,1560337171,2019,11,0,163.458,163.458,55.518,162.448,1019.5,6.57,-999.0,yes,yes,no,300234066432040,BD2GI,AOML,WWD_COLUMBIA,North
2019-06-12T12:00:00Z,1560340800,2019,12,0,163.5,163.5,55.512,162.441,1019.5,6.49,-999.0,yes,yes,no,300234066432040,BD2GI,AOML,WWD_COLUMBIA,North
2019-06-12T13:00:28Z,1560344429,2019,13,0,163.542,163.542,55.507,162.437,1019.3,6.47,-999.0,yes,yes,no,300234066432040,BD2GI,AOML,WWD_COLUMBIA,North
2019-06-12T13:59:31Z,1560347971,2019,14,0,163.583,163.583,55.5,162.433,1019.3,6.42,-999.0,yes,yes,no,300234066432040,BD2GI,AOML,WWD_COLUMBIA,North
2019-06-12T15:00:00Z,1560351600,2019,15,0,163.625,163.625,55.494,162.43,1019.3,6.36,-999.0,yes,yes,no,300234066432040,BD2GI,AOML,WWD_COLUMBIA,North
2019-06-12T16:00:28Z,1560355229,2019,16,0,163.667,163.667,55.486,162.428,1019.1,6.36,-999.0,yes,yes,no,300234066432040,BD2GI,AOML,WWD_COLUMBIA,North
2019-06-12T16:59:31Z,1560358771,2019,17,0,163.708,163.708,55.478,162.426,1019.2,6.35,-999.0,yes,yes,no,300234066432040,BD2GI,AOML,WWD_COLUMBIA,North
2019-06-12T18:00:00Z,1560362400,2019,18,0,163.75,163.75,55.469,162.423,1019.1,6.35,-999.0,yes,yes,no,300234066432040,BD2GI,AOML,WWD_COLUMBIA,North
2019-06-12T19:00:28Z,1560366029,2019,19,0,163.792,163.792,55.461,162.418,1019.2,6.36,-999.0,yes,yes,no,300234066432040,BD2GI,AOML,WWD_COLUMBIA,North
2019-06-12T19:59:31Z,1560369571,2019,20,0,163.833,163.833,55.453,162.415,1019.4,6.37,-999.0,yes,yes,no,300234066432040,BD2GI,AOML,WWD_COLUMBIA,North
2019-06-12T21:00:00Z,1560373200,2019,21,0,163.875,163.875,55.445,162.411,1019.4,6.41,-999.0,yes,yes,no,300234066432040,BD2GI,AOML,WWD_COLUMBIA,North
2019-06-12T22:00:28Z,1560376829,2019,22,0,163.917,163.917,55.437,162.409,1019.5,6.47,-999.0,yes,yes,no,300234066432040,BD2GI,AOML,WWD_COLUMBIA,North
2019-06-12T22:59:31Z,1560380371,2019,23,0,163.958,163.958,55.429,162.407,1019.4,6.52,-999.0,yes,yes,no,300234066432040,BD2GI,AOML,WWD_COLUMBIA,North
2019-06-13T00:00:00Z,1560384000,2019,0,0,164.0,164.0,55.421,162.406,1019.4,6.65,-999.0,yes,yes,no,300234066432040,BD2GI,AOML,WWD_COLUMBIA,North
2019-06-13T01:00:28Z,1560387629,2019,1,0,164.042,164.042,55.413,162.404,1019.3,6.74,-999.0,yes,yes,no,300234066432040,BD2GI,AOML,WWD_COLUMBIA,North
2019-06-13T01:59:31Z,1560391171,2019,2,0,164.083,164.083,55.404,162.4,1019.0,6.79,-999.0,yes,yes,no,300234066432040,BD2GI,AOML,WWD_COLUMBIA,North
2019-06-13T03:00:00Z,1560394800,2019,3,0,164.125,164.125,55.396,162.398,1018.7,6.93,-999.0,yes,yes,no,300234066432040,BD2GI,AOML,WWD_COLUMBIA,North
2019-06-13T04:00:28Z,1560398429,2019,4,0,164.167,164.167,55.389,162.398,1018.4,7.21,-999.0,yes,yes,no,300234066432040,BD2GI,AOML,WWD_COLUMBIA,North
2019-06-13T04:59:31Z,1560401971,2019,5,0,164.208,164.208,55.382,162.401,1018.3,7.06,-999.0,yes,yes,no,300234066432040,BD2GI,AOML,WWD_COLUMBIA,North
2019-06-13T06:00:00Z,1560405600,2019,6,0,164.25,164.25,55.374,162.403,1018.0,6.96,-999.0,yes,yes,no,300234066432040,BD2GI,AOML,WWD_COLUMBIA,North
2019-06-13T07:00:28Z,1560409229,2019,7,0,164.292,164.292,55.366,162.406,1017.8,6.97,-999.0,yes,yes,no,300234066432040,BD2GI,AOML,WWD_COLUMBIA,North
2019-06-13T07:59:31Z,1560412771,2019,8,0,164.333,164.333,55.357,162.41,1017.7,6.89,-999.0,yes,yes,no,300234066432040,BD2GI,AOML,WWD_COLUMBIA,North
2019-06-13T09:00:00Z,1560416400,2019,9,0,164.375,164.375,55.348,162.414,1017.6,6.82,-999.0,yes,yes,no,300234066432040,BD2GI,AOML,WWD_COLUMBIA,North
2019-06-13T10:00:28Z,1560420029,2019,10,0,164.417,164.417,55.339,162.419,1017.5,6.71,-999.0,yes,yes,no,300234066432040,BD2GI,AOML,WWD_COLUMBIA,North
2019-06-13T10:59:31Z,1560423571,2019,11,0,164.458,164.458,55.329,162.423,1017.6,6.65,-999.0,yes,yes,no,300234066432040,BD2GI,AOML,WWD_COLUMBIA,North
2019-06-13T12:00:00Z,1560427200,2019,12,0,164.5,164.5,55.319,162.426,1017.4,6.66,-999.0,yes,yes,no,300234066432040,BD2GI,AOML,WWD_COLUMBIA,North
2019-06-13T13:00:28Z,1560430829,2019,13,0,164.542,164.542,55.309,162.43,1017.5,6.66,-999.0,yes,yes,no,300234066432040,BD2GI,AOML,WWD_COLUMBIA,North
2019-06-13T13:59:31Z,1560434371,2019,14,0,164.583,164.583,55.298,162.433,1017.5,6.65,-999.0,yes,yes,no,300234066432040,BD2GI,AOML,WWD_COLUMBIA,North
2019-06-13T15:00:00Z,1560438000,2019,15,0,164.625,164.625,55.288,162.434,1017.4,6.65,-999.0,yes,yes,no,300234066432040,BD2GI,AOML,WWD_COLUMBIA,North
2019-06-13T16:00:28Z,1560441629,2019,16,0,164.667,164.667,55.279,162.437,1017.5,6.66,-999.0,yes,yes,no,300234066432040,BD2GI,AOML,WWD_COLUMBIA,North
2019-06-13T16:59:31Z,1560445171,2019,17,0,164.708,164.708,55.271,162.44,1017.5,6.66,-999.0,yes,yes,no,300234066432040,BD2GI,AOML,WWD_COLUMBIA,North
2019-06-13T18:00:00Z,1560448800,2019,18,0,164.75,164.75,55.262,162.445,1017.6,6.64,-999.0,yes,yes,no,300234066432040,BD2GI,AOML,WWD_COLUMBIA,North
2019-06-13T19:00:28Z,1560452429,2019,19,0,164.792,164.792,55.253,162.449,1017.5,6.59,-999.0,yes,yes,no,300234066432040,BD2GI,AOML,WWD_COLUMBIA,North
2019-06-13T19:59:31Z,1560455971,2019,20,0,164.833,164.833,55.245,162.455,1017.7,6.62,-999.0,yes,yes,no,300234066432040,BD2GI,AOML,WWD_COLUMBIA,North
2019-06-13T21:00:00Z,1560459600,2019,21,0,164.875,164.875,55.236,162.462,1017.8,6.63,-999.0,yes,yes,no,300234066432040,BD2GI,AOML,WWD_COLUMBIA,North
2019-06-13T22:00:28Z,1560463229,2019,22,0,164.917,164.917,55.227,162.469,1017.9,6.71,-999.0,yes,yes,no,300234066432040,BD2GI,AOML,WWD_COLUMBIA,North
2019-06-13T22:59:31Z,1560466771,2019,23,0,164.958,164.958,55.217,162.474,1018.0,6.79,-999.0,yes,yes,no,300234066432040,BD2GI,AOML,WWD_COLUMBIA,North
2019-06-14T00:00:00Z,1560470400,2019,0,0,165.0,165.0,55.207,162.479,1017.8,6.82,-999.0,yes,yes,no,300234066432040,BD2GI,AOML,WWD_COLUMBIA,North
2019-06-14T01:00:28Z,1560474029,2019,1,0,165.042,165.042,55.196,162.484,1017.9,6.82,-999.0,yes,yes,no,300234066432040,BD2GI,AOML,WWD_COLUMBIA,North
2019-06-14T01:59:31Z,1560477571,2019,2,0,165.083,165.083,55.185,162.489,1017.7,6.86,-999.0,yes,yes,no,300234066432040,BD2GI,AOML,WWD_COLUMBIA,North
2019-06-14T03:00:00Z,1560481200,2019,3,0,165.125,165.125,55.174,162.493,1017.4,6.93,-999.0,yes,yes,no,300234066432040,BD2GI,AOML,WWD_COLUMBIA,North
2019-06-14T04:00:28Z,1560484829,2019,4,0,165.167,165.167,55.164,162.496,1017.3,6.96,-999.0,yes,yes,no,300234066432040,BD2GI,AOML,WWD_COLUMBIA,North
2019-06-14T04:59:31Z,1560488371,2019,5,0,165.208,165.208,55.154,162.499,1017.1,6.95,-999.0,yes,yes,no,300234066432040,BD2GI,AOML,WWD_COLUMBIA,North
2019-06-14T06:00:00Z,1560492000,2019,6,0,165.25,165.25,55.145,162.503,1017.2,6.98,-999.0,yes,yes,no,300234066432040,BD2GI,AOML,WWD_COLUMBIA,North
2019-06-14T07:00:28Z,1560495629,2019,7,0,165.292,165.292,55.137,162.506,1017.2,6.98,-999.0,yes,yes,no,300234066432040,BD2GI,AOML,WWD_COLUMBIA,North
2019-06-14T07:59:31Z,1560499171,2019,8,0,165.333,165.333,55.128,162.513,1017.5,6.88,-999.0,yes,yes,no,300234066432040,BD2GI,AOML,WWD_COLUMBIA,North
2019-06-14T09:00:00Z,1560502800,2019,9,0,165.375,165.375,55.119,162.521,1017.7,6.8,-999.0,yes,yes,no,300234066432040,BD2GI,AOML,WWD_COLUMBIA,North
2019-06-14T10:00:28Z,1560506429,2019,10,0,165.417,165.417,55.109,162.529,1017.9,6.76,-999.0,yes,yes,no,300234066432040,BD2GI,AOML,WWD_COLUMBIA,North
2019-06-14T10:59:31Z,1560509971,2019,11,0,165.458,165.458,55.098,162.536,1017.9,6.69,-999.0,yes,yes,no,300234066432040,BD2GI,AOML,WWD_COLUMBIA,North
2019-06-14T12:00:00Z,1560513600,2019,12,0,165.5,165.5,55.088,162.542,1018.1,6.64,-999.0,yes,yes,no,300234066432040,BD2GI,AOML,WWD_COLUMBIA,North
2019-06-14T13:00:28Z,1560517229,2019,13,0,165.542,165.542,55.078,162.551,1018.0,6.62,-999.0,yes,yes,no,300234066432040,BD2GI,AOML,WWD_COLUMBIA,North
2019-06-14T13:59:31Z,1560520771,2019,14,0,165.583,165.583,55.067,162.561,1018.0,6.57,-999.0,yes,yes,no,300234066432040,BD2GI,AOML,WWD_COLUMBIA,North
2019-06-14T15:00:00Z,1560524400,2019,15,0,165.625,165.625,55.056,162.571,1018.0,6.55,-999.0,yes,yes,no,300234066432040,BD2GI,AOML,WWD_COLUMBIA,North
2019-06-14T16:00:28Z,1560528029,2019,16,0,165.667,165.667,55.044,162.58,1018.2,6.53,-999.0,yes,yes,no,300234066432040,BD2GI,AOML,WWD_COLUMBIA,North
2019-06-14T16:59:31Z,1560531571,2019,17,0,165.708,165.708,55.032,162.587,1018.5,6.51,-999.0,yes,yes,no,300234066432040,BD2GI,AOML,WWD_COLUMBIA,North
2019-06-14T18:00:00Z,1560535200,2019,18,0,165.75,165.75,55.019,162.594,1018.7,6.54,-999.0,yes,yes,no,300234066432040,BD2GI,AOML,WWD_COLUMBIA,North
2019-06-14T19:00:28Z,1560538829,2019,19,0,165.792,165.792,55.008,162.6,1019.4,6.57,-999.0,yes,yes,no,300234066432040,BD2GI,AOML,WWD_COLUMBIA,North
2019-06-14T19:59:31Z,1560542371,2019,20,0,165.833,165.833,54.995,162.606,1019.9,6.61,-999.0,yes,yes,no,300234066432040,BD2GI,AOML,WWD_COLUMBIA,North
2019-06-14T21:00:00Z,1560546000,2019,21,0,165.875,165.875,54.982,162.607,1020.3,6.64,-999.0,yes,yes,no,300234066432040,BD2GI,AOML,WWD_COLUMBIA,North
2019-06-14T22:00:28Z,1560549629,2019,22,0,165.917,165.917,54.97,162.607,1020.7,6.67,-999.0,yes,yes,no,300234066432040,BD2GI,AOML,WWD_COLUMBIA,North